Location: Rounton
(54.4000°N, 1.3500°W)
Time: 23:33:31
(UTC+00:00)

Explorer 7 - Pass Details

Date: 03 December 2021
Orbit: 483 x 674 km, 50.3° (Epoch: 26 January)

Event Time Altitude Azimuth Distance (km) Brightness Sun altitude
Rises 06:50:11 0° 226° (SW) 2,783 10.2 -10.3°
Reaches altitude 10° 06:52:44 10° 215° (SW) 1,850 9.4 -9.9°
Maximum altitude 06:56:19 28° 156° (SSE) 1,045 8.8 -9.5°
Drops below altitude 10° 06:59:44 10° 97° (E) 1,761 10.8 -9.0°
Sets 07:02:06 0° 86° (E) 2,622 11.4 -8.7°
